Вернуться в каталог

FREGAT DEB

АктивенUNKNOWN
NORAD 45831·DEBRIS·🇷🇺 Russia

Запущен Jul 18, 2011 с Baikonur Cosmodrome

Loading…

Ближайшие Пролёты (ближайшие 24 часа)

TLE

СвежийSource: Space-Track

Эпоха: Sep 14, 2026, 01:37 UTC

1 45831U 11037BR  26257.06773635  .00000484  00000-0  29146-3 0  9993
2 45831  51.4429 161.0708 1629432 240.6123 102.2413 11.56314012264184

Отслеживайте FREGAT DEB в реальном времени с AllMySat

Download on the App Store